FW3322 Weather Reports


Display with metric or nautical units.
time (UTC)temp
F
wind
direction
speed
MPH
gust
MPH
rain 1hr
in
rain 24hr
in
rain mn
in
humidity
%
barometer
mb
20260504081523 65 261 3.0 13.0 0.00 0.00 0.00 64 1009.1
20260504044546 68 127 1.0 9.0 0.00 0.00 0.00 62 1010.6
20260504043047 68 150 1.0 7.0 0.00 0.00 0.00 62 1010.7
20260504041549 68 200 1.0 8.0 0.00 0.00 0.00 63 1010.6
20260504040045 68 156 2.0 10.0 0.00 0.00 0.00 63 1010.7
20260504034600 67 194 1.0 8.0 0.00 0.00 0.00 64 1010.7
20260504033043 67 127 1.0 5.0 0.00 0.00 0.00 66 1010.8
20260504031542 67 148 1.0 5.0 0.00 0.00 0.00 67 1010.8
20260504030043 67 150 2.0 6.0 0.00 0.00 0.00 69 1010.7
20260504024541 66 165 2.0 5.0 0.00 0.00 0.00 72 1010.6
20260504023041 66 148 2.0 5.0 0.00 0.00 0.00 73 1010.6
20260504021540 66 152 1.0 3.0 0.00 0.00 0.00 75 1010.5
20260504020040 66 146 0.0 2.0 0.00 0.00 0.00 75 1010.5
20260504014552 67 139 1.0 2.0 0.00 0.00 0.00 74 1010.6
20260504013038 69 144 0.0 2.0 0.00 0.00 0.00 72 1010.5
20260504011540 70 153 0.0 1.0 0.00 0.00 0.00 71 1010.5
20260504010038 72 168 1.0 3.0 0.00 0.00 0.00 67 1010.7
20260504004536 74 188 1.0 3.0 0.00 0.00 0.00 64 1010.6
20260504003043 77 128 2.0 4.0 0.00 0.00 0.00 62 1010.8
20260504001534 77 141 3.0 6.0 0.00 0.00 0.00 61 1010.9
20260504000031 78 200 2.0 6.0 0.00 0.00 0.00 60 1011.0
20260503234542 80 136 3.0 8.0 0.00 0.00 0.00 57 1011.2
20260503233031 81 126 1.0 6.0 0.00 0.00 0.00 58 1011.3
20260503231529 80 163 2.0 7.0 0.00 0.00 0.00 58 1011.4
20260503230028 79 222 2.0 8.0 0.00 0.00 0.00 58 1011.6
20260503224524 79 200 3.0 7.0 0.00 0.00 0.00 56 1011.8
20260503223024 80 117 2.0 8.0 0.00 0.00 0.00 56 1011.9
20260503221523 81 206 4.0 12.0 0.00 0.00 0.00 54 1011.9
20260503220038 81 150 3.0 14.0 0.00 0.00 0.00 57 1012.1
20260503214517 81 206 4.0 12.0 0.00 0.00 0.00 55 1012.2
20260503213015 81 263 4.0 11.0 0.00 0.00 0.00 54 1012.7
20260503211513 80 172 3.0 13.0 0.00 0.00 0.00 54 1012.9
20260503210010 80 211 4.0 12.0 0.00 0.00 0.00 55 1013.3
20260503204507 80 206 6.0 14.0 0.00 0.00 0.00 54 1013.5
20260503203010 80 114 4.0 12.0 0.00 0.00 0.00 54 1013.9
20260503201502 80 208 3.0 11.0 0.00 0.00 0.00 55 1014.0
20260503200105 79 209 5.0 12.0 0.00 0.00 0.00 55 1014.2
20260503194556 79 277 3.0 11.0 0.00 0.00 0.00 57 1014.4
20260503193106 79 221 5.0 11.0 0.00 0.00 0.00 56 1014.5
20260503191551 78 184 4.0 13.0 0.00 0.00 0.00 55 1014.8
20260503190048 78 145 5.0 11.0 0.00 0.00 0.00 55 1015.0
20260503184555 77 171 4.0 13.0 0.00 0.00 0.00 57 1015.3
20260503183054 77 134 6.0 13.0 0.00 0.00 0.00 56 1015.6
20260503181540 76 250 4.0 11.0 0.00 0.00 0.00 56 1015.9
20260503180037 76 208 5.0 12.0 0.00 0.00 0.00 57 1016.3
20260503174535 75 183 4.0 11.0 0.00 0.00 0.00 56 1016.6
20260503173030 74 126 4.0 13.0 0.00 0.00 0.00 58 1016.7
20260503171526 73 154 5.0 11.0 0.00 0.00 0.00 58 1016.8